Погода в Стубле

Россия / Рязанская область     54°18′51″N   39°02′11″E
темп.,
°C
ветер,
м/с
пор.,
м/с
влажн.,
%
обл.,
%
осадки,
мм/ч
давл.,
гПа
погр.,
м
20 июня, вс
вс2000:00+17ю22850 0.0 102411
03:00+16ююз12880 0.0 102411
06:00+18ю11860 0.0 102458
09:00+22ююв22750 0.0 1024488
12:00+25ююв23630 0.0 1024974
15:00+26ююв33580 0.0 10231165
18:00+25ю237012 0.0 1022908
21:00+20ююв228187 0.0 102211
21 июня, пн
пн2100:00+18ююв228592 0.0 102215
03:00+17ююв2288100 0.0 102211
06:00+19вюв228594 0.0 102384
09:00+22юв347671 0.0 1023378
12:00+26юв446313 0.0 10221019
15:00+27юв3459100 0.0 10211101
18:00+26юв357428 0.0 1021359
21:00+21юв2386100 0.0 102121
22 июня, вт
вт2200:00+19ююв339056 0.0 102131
03:00+18юв22917 0.0 102225
06:00+20юв248874 0.0 1022110
09:00+24ююв45735 0.0 1022439
12:00+27юв34610 0.0 1022862
15:00+28юв33561 0.0 10221179
18:00+28юв236742 0.0 1021372
21:00+22юв22776 0.0 102112
23 июня, ср
ср2300:00+20юв118198 0.0 102111
03:00+19юв11850 0.0 102211
06:00+21в22810 0.0 102254
09:00+25вюв33710 0.0 1022381
12:00+28вюв23600 0.0 10221009
15:00+29вюв23520 0.0 10211302
18:00+29вюв12630 0.0 10211299
21:00+23в11750 0.0 102111
24 июня, чт
чт2400:00+21всв01822 0.0 102111
03:00+20всв11852 0.0 102111
06:00+22вюв11823 0.0 102140
09:00+26всв11715 0.0 1021389
12:00+29вюв11605 0.0 10211123
15:00+30ююв21545 0.0 10201547
18:00+30зюз11622 0.0 10201550
21:00+24юз00700 0.0 101911